Location: Izdebno
(52.6670°N, 16.2170°E)
Time: 13:25:24
(UTC+02:00)

A-11 Canister half - Pass Details

Date: 24 February 2024
Orbit: 1525 x 1683 km, 47.3° (Epoch: 24 April)

Event Time Altitude Azimuth Distance (km) Brightness Sun altitude
Exits shadow 02:32:09 16° 142° (SE) 3,249 10.6 -38.2°
Drops below altitude 10° 02:33:43 10° 137° (SE) 3,713 11.0 -38.0°
Sets 02:36:56 0° 132° (SE) 4,709 11.6 -37.6°
